Elmas current weather conditions

sailwx.info

Wind from 140 at 6 knots

Air temperature 23.0° C
Visibility: greater than 5.4 NM
Dewpoint 22.0° C

Last reported at 2014-Aug-02 03:20 UTC.
Time now 2014-Aug-02 04:33 UTC

Location: N 39°15' E 009°03'.
View on Google Maps.

See reports from other nearby stations

  
Tides and Currents Weather Stations Pressure Air Temp Water Temp Dewpoint Dewpoint Depression Visibility Wind Speed Wind Dir Waves Ship Positions
date/time (UTC)wind fromknots sea level pressurealtimeterstation pressurevisibilityair tempwater tempwave heightnotes
2014-Aug-02 03:20 140 6 5.423.0
2014-Aug-02 02:50 150 5 5.423.0
2014-Aug-02 01:50 160 3 5.422.0
2014-Aug-02 01:20 100 2 5.422.0
2014-Aug-02 00:50 330 2 5.421.0
2014-Aug-02 00:20 5.422.0
2014-Aug-01 23:50 300 4 22.0
2014-Aug-01 23:20 300 5 22.0
2014-Aug-01 22:50 330 4 23.0
2014-Aug-01 22:20 330 5 23.0
2014-Aug-01 21:50 300 4 23.0
2014-Aug-01 21:20 310 4 24.0
2014-Aug-01 20:50 350 6 25.0
2014-Aug-01 20:20 330 8 25.0
2014-Aug-01 19:50 340 8 26.0
2014-Aug-01 19:20 350 7 26.0
2014-Aug-01 18:50 350 10 27.0
2014-Aug-01 18:20 360 13 28.0
2014-Aug-01 17:50 350 12 29.0
2014-Aug-01 17:20 340 12 31.0
2014-Aug-01 16:50 330 12 32.0
2014-Aug-01 16:20 330 11 33.0
2014-Aug-01 15:50 340 13 33.0
2014-Aug-01 14:50 340 15 33.0
2014-Aug-01 14:20 340 13 34.0
2014-Aug-01 13:50 340 14 33.0
2014-Aug-01 13:20 340 12 33.0
2014-Aug-01 12:50 340 14 33.0
2014-Aug-01 12:20 330 12 gusting 22 32.0
2014-Aug-01 11:50 340 16 32.0
2014-Aug-01 11:20 340 13 32.0
2014-Aug-01 10:50 340 11 31.0
2014-Aug-01 10:20 330 11 31.0
2014-Aug-01 09:50 330 11 30.0
2014-Aug-01 09:20 330 10 29.0
2014-Aug-01 08:50 320 11 27.0
2014-Aug-01 08:20 330 12 5.426.0
2014-Aug-01 07:50 340 12 5.426.0
2014-Aug-01 07:20 330 10 25.0
2014-Aug-01 06:50 320 8 23.0
2014-Aug-01 06:20 330 10 22.0
2014-Aug-01 05:50 320 8 21.0
2014-Aug-01 05:20 320 9 20.0
2014-Aug-01 04:50 330 8 20.0
2014-Aug-01 04:20 330 8 20.0
2014-Aug-01 03:50 320 9 20.0
2014-Aug-01 03:20 320 8 20.0
2014-Aug-01 02:50 310 8 20.0
2014-Aug-01 02:20 320 5 20.0
2014-Aug-01 01:50 320 6 20.0
2014-Aug-01 01:20 330 5 20.0
2014-Aug-01 00:50 330 6 20.0
2014-Aug-01 00:20 310 5 20.0
2014-Jul-31 23:50 340 7 21.0
2014-Jul-31 22:50 330 8 22.0
2014-Jul-31 22:20 330 7 22.0
2014-Jul-31 21:50 330 5 22.0
2014-Jul-31 21:20 330 7 23.0
2014-Jul-31 20:50 320 10 23.0
2014-Jul-31 20:20 330 12 24.0
2014-Jul-31 19:50 320 13 24.0
2014-Jul-31 19:20 320 15 25.0
2014-Jul-31 18:50 330 15 25.0
2014-Jul-31 18:20 330 15 26.0
2014-Jul-31 17:50 330 16 26.0
2014-Jul-31 17:20 330 18 27.0
2014-Jul-31 16:50 320 20 28.0
2014-Jul-31 16:20 330 20 gusting 30 28.0
2014-Jul-31 15:50 330 20 gusting 31 29.0
2014-Jul-31 15:20 320 17 gusting 29 30.0
2014-Jul-31 14:50 320 20 gusting 31 30.0
2014-Jul-31 14:20 330 19 gusting 29 30.0
2014-Jul-31 13:50 310 18 30.0
2014-Jul-31 13:20 320 20 gusting 36 30.0
2014-Jul-31 12:50 320 19 gusting 30 5.430.0
2014-Jul-31 12:20 340 20 gusting 32 5.430.0
2014-Jul-31 11:50 340 18 gusting 29 5.431.0
2014-Jul-31 11:20 330 19 5.430.0
2014-Jul-31 10:50 330 19 5.430.0
2014-Jul-31 10:20 330 18 5.430.0
2014-Jul-31 09:50 330 18 gusting 27 5.429.0
2014-Jul-31 09:20 330 15 gusting 26 5.429.0
2014-Jul-31 08:50 320 15 28.0
2014-Jul-31 08:20 320 15 28.0
2014-Jul-31 07:50 330 15 27.0
2014-Jul-31 07:20 330 15 26.0
2014-Jul-31 06:50 310 10 25.0
2014-Jul-31 06:20 320 8 24.0
2014-Jul-31 05:50 330 9 23.0
2014-Jul-31 05:20 330 10 23.0
2014-Jul-31 04:50 340 8 22.0
2014-Jul-31 04:20 330 8 5.422.0